Theta_e
321 321 321 322 322 322 320 317 315 314 314 314 315 316 316 316 316 322 327 335 341 350 349 344 349 350 351 347 348 349 348 341 343 345 344 342 342 342 342 343 342 343 346 346 343
322 321 321 321 322 322 320 318 316 315 314 314 315 317 317 317 316 321 323 332 345 349 351 352 352 350 355 350 347 347 351 351 340 341 344 342 342 342 342 342 344 347 345 346 346
322 322 321 321 322 322 320 319 317 315 314 313 315 317 317 317 318 319 323 326 338 351 353 351 351 353 351 350 350 350 350 349 341 339 342 342 342 341 341 342 341 346 348 346 348
322 322 322 320 319 319 319 318 318 316 314 313 314 317 317 322 326 321 323 324 335 350 349 348 347 349 348 350 350 350 347 347 337 341 342 342 342 339 340 342 341 347 348 348 348
321 322 322 319 316 316 316 316 317 315 313 314 314 316 320 325 329 327 321 325 345 345 345 343 345 347 347 348 348 347 344 340 338 341 342 342 342 339 341 341 344 346 347 347 348
320 321 322 320 317 319 317 315 315 314 314 314 314 316 320 328 327 327 323 329 345 346 345 341 339 342 345 348 348 346 340 338 340 341 341 342 341 341 340 341 344 345 347 347 347
321 320 321 321 319 321 320 317 315 314 314 314 315 317 320 326 327 321 324 329 344 346 343 337 333 336 345 349 348 347 343 341 340 339 341 341 342 341 341 341 343 345 345 347 347
321 321 321 322 319 319 314 314 315 314 313 313 315 317 318 323 328 323 323 324 341 345 341 331 329 342 349 349 346 348 348 346 343 340 339 339 345 339 341 341 343 343 344 345 345
322 321 321 322 320 319 320 314 313 313 313 313 315 318 319 323 328 326 321 323 342 344 332 329 327 345 345 348 350 349 354 352 350 345 341 342 346 339 341 341 341 342 343 343 344
319 321 321 322 321 321 323 325 321 316 313 314 317 319 320 326 327 327 324 328 330 327 322 324 330 342 347 347 345 348 349 347 352 348 348 344 343 340 341 341 341 341 341 342 342
316 320 322 322 321 321 321 323 324 323 317 316 320 322 325 326 327 326 325 328 326 323 327 322 331 337 341 346 343 344 345 342 345 347 349 351 351 345 340 341 341 341 341 341 340
315 318 321 322 321 320 322 324 325 325 325 324 322 321 323 323 325 326 326 326 324 327 321 325 331 330 331 340 343 341 341 341 343 347 349 348 349 347 341 340 340 341 341 341 341
312 315 319 321 322 320 325 325 325 325 323 322 322 322 323 323 324 325 326 323 322 323 322 328 327 323 326 325 327 332 336 340 345 350 347 349 351 348 345 340 339 340 340 340 341
311 313 316 320 322 321 326 326 325 325 326 326 323 323 323 324 324 324 326 323 320 324 321 322 321 323 325 326 335 337 342 342 346 347 348 347 343 350 347 345 340 339 339 339 340
311 312 314 319 322 324 326 326 325 322 333 326 324 323 323 324 323 323 325 322 322 321 321 324 323 324 325 327 339 336 339 343 347 347 348 347 348 344 346 350 348 341 340 340 340
311 312 312 317 322 325 327 326 324 327 331 327 322 323 324 322 322 321 323 322 320 321 320 322 320 323 324 325 337 330 328 333 339 346 340 342 345 336 343 346 347 346 342 341 340
312 312 312 315 321 324 327 325 325 330 326 325 325 322 324 324 323 323 324 324 324 324 324 322 323 324 324 325 323 325 327 330 331 335 333 335 347 340 340 339 341 344 345 343 342
312 312 313 314 321 327 326 326 326 326 328 327 326 320 324 323 323 323 324 325 321 323 324 325 323 324 324 326 327 326 328 329 331 330 329 329 334 334 331 327 337 343 343 345 343
315 322 322 319 319 326 325 326 325 327 327 327 325 323 322 322 323 323 324 324 324 323 326 326 326 323 323 323 324 324 327 324 326 321 325 327 327 326 329 335 347 347 344 346 345
326 326 326 320 323 327 326 322 327 324 325 325 329 325 324 326 324 324 324 323 323 321 324 325 327 324 324 323 321 325 322 326 326 331 331 328 326 328 330 330 333 349 347 347 345
326 324 325 325 325 324 327 325 325 324 323 326 326 327 327 328 327 324 324 328 327 321 321 323 325 327 325 327 328 324 325 322 324 325 331 331 329 330 334 339 338 339 342 346 345
327 326 324 327 326 319 326 323 321 320 319 321 324 324 326 325 326 326 328 330 328 323 325 323 325 328 327 324 323 325 328 327 328 330 324 325 328 328 329 334 334 328 335 335 341
321 320 323 327 327 323 319 320 318 319 319 320 322 322 322 326 329 326 328 328 328 331 330 323 326 331 331 327 322 326 323 324 323 323 329 328 329 325 326 327 329 331 331 333 334
319 323 319 319 315 319 320 319 319 319 319 318 320 322 325 326 328 329 332 329 327 330 323 325 327 332 332 332 327 330 328 322 323 327 329 328 329 330 331 329 326 328 328 330 331
316 316 314 319 318 316 317 317 320 321 320 320 322 321 324 327 328 331 330 329 328 327 328 329 334 325 327 326 328 330 329 329 324 327 328 329 329 329 328 328 327 327 333 339 336
314 315 313 313 313 314 315 319 320 320 320 320 322 322 321 328 328 330 329 328 329 328 330 327 334 331 333 332 330 329 330 329 330 328 326 324 326 331 333 332 335 335 338 340 344
315 314 311 312 314 313 318 318 319 318 318 319 320 322 321 324 321 322 322 323 324 326 327 328 332 333 333 331 331 333 332 330 329 330 329 327 332 333 335 334 336 341 342 343 344
Wind_Speed
13 12 10 8 6 5 4 3 2 1 1 1 2 2 1 2 4 6 3 4 7 8 8 6 2 3 2 2 3 2 3 4 5 8 6 11 9 8 3 14 12 2 12 14 20
13 13 12 10 6 4 3 3 2 1 1 2 2 3 2 2 3 6 3 6 8 8 5 2 2 1 0 1 2 1 3 4 3 9 11 14 14 9 10 13 5 8 18 19 18
15 14 13 10 7 5 3 3 2 1 1 3 3 4 2 3 5 4 6 7 8 8 4 3 2 1 1 2 4 1 3 2 2 13 23 17 9 4 17 9 12 16 22 21 17
15 16 15 11 7 5 3 2 2 1 2 4 3 5 3 7 2 6 7 6 6 5 5 6 5 1 3 4 5 2 7 3 9 14 18 18 12 9 8 2 9 23 24 22 18
15 16 15 12 7 4 2 1 1 1 3 4 4 5 7 4 3 4 9 6 6 5 4 5 6 2 5 3 3 8 8 4 13 17 17 15 9 9 3 7 17 21 22 20 18
15 15 15 12 7 4 3 2 0 1 3 4 5 5 6 3 4 3 9 9 7 4 3 8 6 4 3 3 5 8 13 14 12 16 13 11 8 6 4 14 19 20 20 19 18
15 15 14 12 7 4 2 1 1 1 2 4 5 5 4 3 4 3 9 10 7 4 4 6 6 2 2 2 4 4 12 10 7 8 5 15 4 1 15 18 20 19 19 19 19
15 14 13 11 8 4 2 2 2 2 2 4 6 5 3 3 2 4 9 12 10 6 1 4 7 5 3 2 3 3 2 2 5 5 8 4 2 4 19 20 20 20 19 19 20
15 14 12 10 7 2 4 5 3 2 3 4 6 5 2 6 3 4 8 8 9 6 3 3 4 3 1 3 2 4 2 1 1 3 6 6 1 10 20 19 19 20 20 20 20
15 13 12 9 5 1 1 3 4 2 4 4 4 2 4 4 6 7 10 9 4 3 0 1 1 2 1 2 2 2 2 2 3 2 4 6 10 8 22 22 21 22 21 21 21
14 13 11 8 3 1 1 1 1 0 4 2 2 2 5 6 9 9 11 8 4 3 4 2 4 6 5 4 2 1 2 6 3 5 6 10 9 10 21 23 23 23 24 25 25
14 11 10 8 1 3 2 3 4 2 3 5 8 6 6 5 4 9 12 6 3 5 1 3 5 7 2 3 4 7 8 9 7 1 6 5 11 12 20 28 30 27 26 27 27
15 11 8 6 3 5 4 2 3 5 1 2 4 7 6 8 5 11 15 6 3 4 5 6 3 5 2 2 5 5 7 3 2 3 2 4 9 7 11 21 25 26 26 24 27
15 11 7 4 3 8 6 1 4 2 1 2 3 4 8 5 3 10 16 7 2 7 3 5 1 4 2 3 2 4 2 2 5 2 2 3 5 4 8 14 21 29 29 30 27
14 11 6 4 3 8 7 2 2 0 2 2 3 2 8 4 6 5 16 5 4 5 4 2 2 5 4 2 3 3 3 3 3 2 4 3 4 2 2 9 18 27 31 31 29
14 11 7 5 8 9 8 2 1 2 3 3 4 5 6 2 2 5 7 3 3 4 0 3 2 3 2 2 3 8 4 6 4 1 4 1 4 4 4 5 4 17 29 31 29
13 11 7 6 5 11 8 4 2 2 1 2 2 3 5 4 4 4 8 9 4 4 4 1 7 3 4 4 4 4 1 2 3 3 6 4 5 10 14 10 9 10 20 28 32
12 6 5 8 9 11 10 2 3 1 1 2 2 3 6 7 3 3 7 8 4 2 0 3 5 8 6 13 6 5 5 4 5 5 8 2 5 5 7 13 10 13 18 20 27
2 7 5 6 12 10 8 3 2 2 1 1 3 3 4 3 2 3 6 5 7 14 6 4 3 2 3 1 2 5 5 1 2 2 4 4 5 12 14 8 5 8 5 16 22
10 10 8 8 12 8 2 2 1 2 3 1 2 1 4 5 7 6 6 2 2 11 10 5 3 0 2 4 7 3 8 3 1 6 11 3 4 8 14 16 9 5 3 10 15
6 4 4 7 8 4 2 1 2 2 2 1 2 2 2 2 3 4 3 4 4 2 6 6 5 4 3 4 4 3 3 3 0 3 10 11 6 6 8 7 6 7 7 7 13
4 2 2 4 3 2 2 0 5 4 8 3 3 3 1 1 2 2 3 1 10 4 5 4 2 4 7 2 3 2 8 6 6 5 2 4 13 5 8 7 8 15 14 14 12
4 3 5 2 3 2 1 2 5 4 6 5 3 4 2 2 2 2 2 0 9 3 2 6 3 4 3 4 3 4 3 4 3 2 12 11 11 1 3 7 9 14 15 17 15
2 2 7 9 6 3 2 2 3 7 4 4 3 3 2 2 5 2 2 4 5 6 5 4 3 6 10 7 2 5 4 4 7 6 14 11 19 13 15 10 15 17 19 15 14
5 3 2 2 5 5 2 2 2 2 6 9 3 6 2 0 1 1 1 3 1 8 3 1 4 3 6 7 4 8 10 9 9 14 12 18 19 14 9 11 15 18 19 17 13
5 3 4 4 3 1 5 3 2 3 5 3 3 6 3 1 2 1 4 0 2 3 2 2 1 1 5 7 7 10 12 14 14 15 15 19 22 5 13 11 15 18 20 18 15
8 7 4 4 2 1 2 2 2 4 2 5 6 4 3 2 8 10 10 12 6 5 3 2 2 2 12 4 10 13 11 13 12 3 5 11 7 10 11 13 16 21 18 20 18
Wind_Direction
20 15 9 359 350 337 327 317 308 262 173 200 166 144 167 169 168 187 163 151 159 164 149 151 65 152 122 115 109 135 84 110 139 174 142 147 127 143 122 139 137 75 142 151 153
19 17 8 358 349 338 325 310 293 268 172 170 163 146 167 179 179 191 180 176 149 159 159 208 293 129 217 98 59 8 65 56 159 166 156 160 150 148 146 155 138 108 148 158 157
15 16 12 5 351 342 329 309 288 266 178 161 163 145 170 154 140 143 170 169 151 149 111 74 0 155 109 74 19 32 49 1 11 184 156 152 148 145 152 184 191 171 159 166 166
14 12 13 12 3 343 337 308 283 239 173 157 170 143 153 134 140 152 170 169 147 138 74 47 29 31 52 57 22 67 9 355 121 142 150 155 146 145 161 278 197 164 164 166 173
12 10 10 12 12 13 360 6 280 208 159 156 163 142 141 120 107 145 185 171 156 117 78 58 45 5 42 30 72 38 12 69 125 136 141 142 151 158 215 132 146 157 170 174 178
8 7 8 7 13 25 34 43 100 161 158 160 161 157 143 151 127 172 168 173 169 139 55 43 18 10 27 15 51 70 83 102 120 126 141 144 143 147 186 153 156 168 179 185 187
4 3 3 4 11 18 34 59 118 154 161 158 163 167 144 140 115 151 166 167 180 156 66 37 7 9 11 63 32 102 98 105 122 129 128 133 145 225 160 167 170 182 189 195 203
358 359 359 1 4 22 58 109 128 139 157 154 160 160 122 160 128 127 167 174 181 181 108 12 357 88 38 108 39 44 53 145 147 154 160 226 119 163 165 172 180 190 201 206 210
354 354 354 356 355 44 82 90 115 139 144 149 155 154 154 194 191 162 161 178 184 195 283 294 25 68 71 130 118 42 8 332 172 191 164 225 291 168 176 188 189 195 206 214 216
350 351 350 352 340 163 92 81 90 114 137 131 148 176 188 170 186 174 164 162 163 184 92 67 62 183 105 201 80 156 255 278 219 161 198 206 247 171 186 196 203 201 210 218 224
346 347 346 348 332 165 50 129 2 36 212 211 154 88 136 133 149 168 177 161 161 160 206 82 219 244 269 217 126 131 261 287 282 196 215 237 245 216 197 203 211 212 213 220 226
341 342 341 348 231 152 111 106 58 2 309 239 226 216 176 132 138 174 173 171 164 197 148 224 260 241 344 177 249 262 278 274 269 181 229 237 252 233 202 208 211 211 215 219 228
333 333 335 339 211 166 141 133 1 351 285 280 209 218 206 210 202 183 180 162 137 171 193 237 79 120 263 256 247 264 241 237 355 115 180 285 267 216 218 219 220 223 226 228 227
325 319 322 325 189 182 185 237 338 307 1 146 211 202 186 174 170 178 180 173 120 213 170 264 286 225 241 272 231 322 248 159 159 234 334 332 319 276 219 223 221 222 221 227 230
319 306 296 223 214 192 185 233 333 241 147 131 141 191 165 174 135 165 178 180 168 158 192 196 179 158 238 259 184 17 65 124 118 127 290 205 260 273 204 235 232 227 223 225 227
314 297 279 248 220 199 187 198 190 243 130 133 134 158 154 157 97 122 169 156 129 142 202 269 317 256 261 146 163 155 119 85 85 104 259 331 265 291 235 232 231 225 223 225 224
310 290 261 215 196 187 181 169 223 225 299 107 129 164 182 159 155 151 171 192 199 184 225 215 231 238 201 247 151 189 242 283 252 228 286 9 234 268 275 270 260 252 229 222 217
316 283 213 195 179 168 168 138 217 137 213 49 83 111 190 168 172 146 151 200 205 154 88 228 215 197 178 219 234 187 221 240 277 281 312 161 243 265 281 299 287 267 244 231 218
29 107 117 189 177 166 166 193 218 191 20 345 112 155 177 165 202 178 203 213 214 187 211 188 248 304 226 132 261 153 194 16 192 107 263 271 268 275 277 298 322 331 230 216 210
123 89 77 120 161 158 115 163 144 257 331 203 168 207 160 153 182 192 183 133 244 207 220 181 281 197 69 142 65 248 139 184 222 265 277 218 268 274 294 300 328 311 210 206 216
141 96 93 111 140 134 164 160 249 340 351 255 139 124 100 148 202 194 143 48 355 73 195 165 234 189 283 221 222 154 200 64 222 279 270 286 267 217 267 309 287 329 325 260 227
126 86 85 135 62 36 113 87 356 357 22 45 77 69 78 81 154 172 139 37 350 190 158 175 188 238 249 121 343 256 256 241 254 238 253 285 272 239 247 273 289 300 304 307 275
83 93 54 135 125 95 61 88 45 32 30 20 47 22 8 63 187 93 115 144 11 58 144 171 200 257 249 143 127 228 188 238 267 256 240 253 265 184 280 271 284 289 299 304 300
80 105 36 66 70 86 105 49 104 33 68 46 34 56 53 58 25 93 95 22 1 37 33 185 182 238 253 290 66 261 243 220 237 269 270 244 274 267 271 302 301 296 294 305 293
53 74 50 55 46 64 36 20 81 32 17 26 79 50 24 333 28 106 39 335 53 8 59 18 254 223 261 260 268 263 264 270 238 258 268 282 273 280 328 307 308 307 308 308 287
80 96 77 67 17 64 9 36 55 2 349 16 60 355 19 203 38 41 347 88 338 352 44 4 245 289 270 268 248 260 269 269 265 263 264 270 276 4 319 317 324 329 324 308 298
60 76 96 8 48 126 54 56 72 338 55 79 4 336 328 90 310 289 275 278 280 316 323 307 241 258 266 296 298 267 245 258 268 242 271 257 315 336 332 339 347 343 339 323 316